Satellite: MET-3/5
Catalog number: 21655
Epoch time:      10111.65939722
Element set:     792
Inclination:      082.5595 deg
RA of node:       348.5796 deg
Eccentricity:    0.0014441
Arg of perigee:   126.5814 deg
Mean anomaly:     233.6603 deg
Mean motion:   13.17021868 rev/day
Decay rate:        5.1e-07 rev/day^2
Epoch rev:           89823
Checksum:              316

Satellite: MET-2/21
Catalog number: 22782
Epoch time:      10112.75469577
Element set:     755
Inclination:      082.5450 deg
RA of node:       296.4251 deg
Eccentricity:    0.0021903
Arg of perigee:   194.4716 deg
Mean anomaly:     165.5824 deg
Mean motion:   13.83643401 rev/day
Decay rate:        2.0e-07 rev/day^2
Epoch rev:           84041
Checksum:              292

Satellite: OKEAN-4
Catalog number: 23317
Epoch time:      10112.85242553
Element set:     211
Inclination:      082.5414 deg
RA of node:       045.5035 deg
Eccentricity:    0.0024009
Arg of perigee:   065.6949 deg
Mean anomaly:     294.6786 deg
Mean motion:   14.82802827 rev/day
Decay rate:       3.08e-06 rev/day^2
Epoch rev:           83825
Checksum:              294

Satellite: NOAA-14
Catalog number: 23455
Epoch time:      10112.44486789
Element set:      29
Inclination:      098.8786 deg
RA of node:       193.5713 deg
Eccentricity:    0.0010034
Arg of perigee:   038.2196 deg
Mean anomaly:     321.9682 deg
Mean motion:   14.13784227 rev/day
Decay rate:        2.9e-07 rev/day^2
Epoch rev:           78962
Checksum:              326

Satellite: NOAA-15
Catalog number: 25338
Epoch time:      10112.18552472
Element set:     349
Inclination:      098.6166 deg
RA of node:       100.1255 deg
Eccentricity:    0.0009743
Arg of perigee:   235.1354 deg
Mean anomaly:     124.8894 deg
Mean motion:   14.24819428 rev/day
Decay rate:        7.5e-07 rev/day^2
Epoch rev:           62077
Checksum:              302

Satellite: RESURS
Catalog number: 25394
Epoch time:      10112.63564032
Element set:     484
Inclination:      098.3086 deg
RA of node:       133.7314 deg
Eccentricity:    0.0002212
Arg of perigee:   047.3177 deg
Mean anomaly:     312.8183 deg
Mean motion:   14.24198885 rev/day
Decay rate:       -1.1e-07 rev/day^2
Epoch rev:           61244
Checksum:              271

Satellite: FENGYUN1
Catalog number: 25730
Epoch time:      10111.89068518
Element set:      24
Inclination:      098.7843 deg
RA of node:       078.3143 deg
Eccentricity:    0.0024952
Arg of perigee:   066.1291 deg
Mean anomaly:     294.2516 deg
Mean motion:   14.08222223 rev/day
Decay rate:       2.51e-06 rev/day^2
Epoch rev:           56376
Checksum:              284

Satellite: OKEAN-0
Catalog number: 25860
Epoch time:      10112.39832843
Element set:     972
Inclination:      097.8280 deg
RA of node:       087.0086 deg
Eccentricity:    0.0000577
Arg of perigee:   072.0044 deg
Mean anomaly:     288.1235 deg
Mean motion:   14.73632603 rev/day
Decay rate:        5.7e-07 rev/day^2
Epoch rev:           57868
Checksum:              304

Satellite: NOAA-16
Catalog number: 26536
Epoch time:      10112.26861727
Element set:     826
Inclination:      099.1730 deg
RA of node:       128.4138 deg
Eccentricity:    0.0011281
Arg of perigee:   131.3885 deg
Mean anomaly:     228.8267 deg
Mean motion:   14.12553195 rev/day
Decay rate:      -2.22e-06 rev/day^2
Epoch rev:           49393
Checksum:              303

Satellite: NOAA-17
Catalog number: 27453
Epoch time:      10112.35264654
Element set:     830
Inclination:      098.4358 deg
RA of node:       165.0300 deg
Eccentricity:    0.0010838
Arg of perigee:   303.2246 deg
Mean anomaly:     056.7893 deg
Mean motion:   14.24150187 rev/day
Decay rate:       -2.8e-07 rev/day^2
Epoch rev:           40675
Checksum:              287

Satellite: NOAA-18
Catalog number: 28654
Epoch time:      10112.43646172
Element set:     314
Inclination:      098.9468 deg
RA of node:       058.8732 deg
Eccentricity:    0.0013765
Arg of perigee:   207.7581 deg
Mean anomaly:     152.2858 deg
Mean motion:   14.11346989 rev/day
Decay rate:      -1.76e-06 rev/day^2
Epoch rev:           25357
Checksum:              333

Satellite: NOAA-19
Catalog number: 33591
Epoch time:      10112.41240394
Element set:     513
Inclination:      098.7849 deg
RA of node:       055.7284 deg
Eccentricity:    0.0015159
Arg of perigee:   087.2933 deg
Mean anomaly:     272.9975 deg
Mean motion:   14.11043816 rev/day
Decay rate:        6.0e-08 rev/day^2
Epoch rev:            6204
Checksum:              301

/EX
SB KEPS @ AMSAT  $ORB10112.M
Orbital Elements  10112.MISC

HR AMSAT ORBITAL ELEMENTS FOR MANNED AND MISCELLANEOUS SATELLITES
FROM WA5QGD FORT WORTH,TX April 22, 2010
Send Subscribe/unsubscribe to KEPS at http://www.amsat.org/mailman/listinfo/kep
BID: ORB10112.M
TO ALL RADIO AMATEURS BT

Satellite: HUBBLE
Catalog number: 20580
Epoch time:      10110.59790984
Element set:     553
Inclination:      028.4707 deg
RA of node:       255.8109 deg
Eccentricity:    0.0003219
Arg of perigee:   312.8116 deg
Mean anomaly:     047.2138 deg
Mean motion:   15.00954638 rev/day
Decay rate:       5.46e-06 rev/day^2
Epoch rev:           89609
Checksum:              299

